Time,TemperatureF,DewpointF,PressureIn,WindDirection,WindDirectionDegrees,WindSpeedMPH,WindSpeedGustMPH,Humidity,HourlyPrecipIn,Conditions,Clouds,dailyrainin,SoftwareType,DateUTC
2013-11-13 00:13:00,25.0,20.0,30.48,SE,135,0.0,-999.0,81,-99.99,,,0.00,Acu-Link.com,2013-11-13 07:13:00,
2013-11-13 00:28:00,24.8,19.8,30.47,SE,135,0.0,-999.0,81,-99.99,,,0.00,Acu-Link.com,2013-11-13 07:28:00,
2013-11-13 00:43:00,24.3,19.6,30.47,SE,135,0.0,-999.0,82,-99.99,,,0.00,Acu-Link.com,2013-11-13 07:43:00,
2013-11-13 00:59:00,23.5,18.8,30.47,SE,135,0.0,-999.0,82,-99.99,,,0.00,Acu-Link.com,2013-11-13 07:59:00,
2013-11-13 01:14:00,23.2,18.5,30.47,SE,135,0.0,-999.0,82,-99.99,,,0.00,Acu-Link.com,2013-11-13 08:14:00,
2013-11-13 01:29:00,23.7,19.3,30.46,SE,135,0.0,-999.0,83,-99.99,,,0.00,Acu-Link.com,2013-11-13 08:29:00,
2013-11-13 01:44:00,23.4,19.3,30.45,SE,135,0.0,-999.0,84,-99.99,,,0.00,Acu-Link.com,2013-11-13 08:44:00,
2013-11-13 02:00:00,23.7,19.9,30.46,SE,135,0.0,-999.0,85,-99.99,,,0.00,Acu-Link.com,2013-11-13 09:00:00,
2013-11-13 02:15:00,23.7,19.9,30.46,SE,135,2.7,-999.0,85,-99.99,,,0.00,Acu-Link.com,2013-11-13 09:15:00,
2013-11-13 02:30:00,23.5,19.7,30.45,SE,135,1.7,-999.0,85,-99.99,,,0.00,Acu-Link.com,2013-11-13 09:30:00,
2013-11-13 02:45:00,25.9,21.7,30.45,SE,135,3.2,-999.0,84,-99.99,,,0.00,Acu-Link.com,2013-11-13 09:45:00,
2013-11-13 03:01:00,24.6,19.9,30.44,SE,135,2.7,-999.0,82,-99.99,,,0.00,Acu-Link.com,2013-11-13 10:01:00,
2013-11-13 03:16:00,23.5,18.8,30.44,SE,135,0.0,-999.0,82,-99.99,,,0.00,Acu-Link.com,2013-11-13 10:16:00,
2013-11-13 03:31:00,23.0,18.6,30.43,SE,135,0.0,-999.0,83,-99.99,,,0.00,Acu-Link.com,2013-11-13 10:31:00,
2013-11-13 03:46:00,22.3,17.7,30.43,SE,135,0.0,-999.0,82,-99.99,,,0.00,Acu-Link.com,2013-11-13 10:46:00,
2013-11-13 04:01:00,21.7,17.3,30.42,SE,135,0.0,-999.0,83,-99.99,,,0.00,Acu-Link.com,2013-11-13 11:01:00,
2013-11-13 04:16:00,21.4,17.1,30.42,SE,135,0.0,-999.0,83,-99.99,,,0.00,Acu-Link.com,2013-11-13 11:16:00,
2013-11-13 04:31:00,21.0,16.4,30.41,SE,135,0.0,-999.0,82,-99.99,,,0.00,Acu-Link.com,2013-11-13 11:31:00,
2013-11-13 04:47:00,20.8,16.5,30.41,SE,135,0.0,-999.0,83,-99.99,,,0.00,Acu-Link.com,2013-11-13 11:47:00,
2013-11-13 05:02:00,20.8,16.5,30.42,SE,135,0.0,-999.0,83,-99.99,,,0.00,Acu-Link.com,2013-11-13 12:02:00,
2013-11-13 05:17:00,20.8,16.7,30.42,SE,135,0.0,-999.0,84,-99.99,,,0.00,Acu-Link.com,2013-11-13 12:17:00,
2013-11-13 05:32:00,20.7,16.6,30.43,SE,135,0.0,-999.0,84,-99.99,,,0.00,Acu-Link.com,2013-11-13 12:32:00,
2013-11-13 05:47:00,20.3,16.3,30.42,SE,135,0.0,-999.0,84,-99.99,,,0.00,Acu-Link.com,2013-11-13 12:47:00,
2013-11-13 06:03:00,20.5,16.4,30.41,SE,135,0.0,-999.0,84,-99.99,,,0.00,Acu-Link.com,2013-11-13 13:03:00,
2013-11-13 06:18:00,20.1,16.1,30.41,SE,135,0.0,-999.0,84,-99.99,,,0.00,Acu-Link.com,2013-11-13 13:18:00,
2013-11-13 06:33:00,19.9,15.9,30.40,SE,135,0.0,-999.0,84,-99.99,,,0.00,Acu-Link.com,2013-11-13 13:33:00,
2013-11-13 06:49:00,19.9,15.9,30.41,SE,135,0.0,-999.0,84,-99.99,,,0.00,Acu-Link.com,2013-11-13 13:49:00,
2013-11-13 07:04:00,19.8,15.8,30.39,SE,135,0.0,-999.0,84,-99.99,,,0.00,Acu-Link.com,2013-11-13 14:04:00,
2013-11-13 07:20:00,19.9,15.9,30.39,SE,135,0.0,-999.0,84,-99.99,,,0.00,Acu-Link.com,2013-11-13 14:20:00,
2013-11-13 07:35:00,24.8,21.2,30.40,SE,135,0.0,-999.0,86,-99.99,,,0.00,Acu-Link.com,2013-11-13 14:35:00,
2013-11-13 07:50:00,31.3,28.2,30.39,SE,135,2.2,-999.0,88,-99.99,,,0.00,Acu-Link.com,2013-11-13 14:50:00,
2013-11-13 08:06:00,36.1,30.2,30.39,SE,135,0.0,-999.0,79,-99.99,,,0.00,Acu-Link.com,2013-11-13 15:06:00,
2013-11-13 08:21:00,39.7,31.1,30.39,SE,135,1.7,-999.0,71,-99.99,,,0.00,Acu-Link.com,2013-11-13 15:21:00,
2013-11-13 08:36:00,42.4,32.2,30.39,SE,135,0.0,-999.0,67,-99.99,,,0.00,Acu-Link.com,2013-11-13 15:36:00,
2013-11-13 08:52:00,45.1,32.5,30.38,WNW,292,2.2,-999.0,61,-99.99,,,0.00,Acu-Link.com,2013-11-13 15:52:00,
2013-11-13 09:07:00,46.6,32.6,30.38,WNW,292,1.7,-999.0,58,-99.99,,,0.00,Acu-Link.com,2013-11-13 16:07:00,
2013-11-13 09:22:00,48.0,33.1,30.37,WNW,292,1.7,-999.0,56,-99.99,,,0.00,Acu-Link.com,2013-11-13 16:22:00,
2013-11-13 09:37:00,49.3,33.8,30.36,NW,315,2.7,-999.0,55,-99.99,,,0.00,Acu-Link.com,2013-11-13 16:37:00,
2013-11-13 09:53:00,51.6,34.1,30.35,NW,315,1.7,-999.0,51,-99.99,,,0.00,Acu-Link.com,2013-11-13 16:53:00,
2013-11-13 10:08:00,52.9,35.8,30.34,WSW,247,2.7,-999.0,52,-99.99,,,0.00,Acu-Link.com,2013-11-13 17:08:00,
2013-11-13 10:23:00,55.2,34.2,30.34,WSW,247,2.2,-999.0,45,-99.99,,,0.00,Acu-Link.com,2013-11-13 17:23:00,
2013-11-13 10:38:00,56.8,35.1,30.32,WNW,292,2.7,-999.0,44,-99.99,,,0.00,Acu-Link.com,2013-11-13 17:38:00,
2013-11-13 10:53:00,54.5,32.5,30.31,SSW,202,2.7,-999.0,43,-99.99,,,0.00,Acu-Link.com,2013-11-13 17:53:00,
2013-11-13 11:09:00,59.2,34.9,30.30,SSW,202,3.2,-999.0,40,-99.99,,,0.00,Acu-Link.com,2013-11-13 18:09:00,
2013-11-13 11:24:00,59.0,34.1,30.29,WNW,292,3.7,-999.0,39,-99.99,,,0.00,Acu-Link.com,2013-11-13 18:24:00,
2013-11-13 11:39:00,57.9,33.1,30.27,South,180,2.7,-999.0,39,-99.99,,,0.00,Acu-Link.com,2013-11-13 18:39:00,
2013-11-13 11:54:00,57.2,33.7,30.26,SSW,202,1.1,-999.0,41,-99.99,,,0.00,Acu-Link.com,2013-11-13 18:54:00,
2013-11-13 12:10:00,60.6,34.2,30.25,West,270,4.2,-999.0,37,-99.99,,,0.00,Acu-Link.com,2013-11-13 19:10:00,
2013-11-13 12:25:00,59.0,32.8,30.23,SW,225,2.7,-999.0,37,-99.99,,,0.00,Acu-Link.com,2013-11-13 19:25:00,
2013-11-13 12:40:00,60.6,34.2,30.22,SSW,202,4.2,-999.0,37,-99.99,,,0.00,Acu-Link.com,2013-11-13 19:40:00,
2013-11-13 12:56:00,61.9,34.7,30.21,WNW,292,6.8,-999.0,36,-99.99,,,0.00,Acu-Link.com,2013-11-13 19:56:00,
2013-11-13 13:11:00,62.4,34.4,30.19,WSW,247,2.2,-999.0,35,-99.99,,,0.00,Acu-Link.com,2013-11-13 20:11:00,
2013-11-13 13:26:00,61.0,33.2,30.19,WNW,292,1.7,-999.0,35,-99.99,,,0.00,Acu-Link.com,2013-11-13 20:26:00,
2013-11-13 13:41:00,60.6,32.1,30.18,SSW,202,2.2,-999.0,34,-99.99,,,0.00,Acu-Link.com,2013-11-13 20:41:00,
2013-11-13 13:57:00,62.1,32.7,30.17,NW,315,2.7,-999.0,33,-99.99,,,0.00,Acu-Link.com,2013-11-13 20:57:00,
2013-11-13 14:12:00,60.8,27.5,30.16,West,270,2.7,-999.0,28,-99.99,,,0.00,Acu-Link.com,2013-11-13 21:12:00,
2013-11-13 14:27:00,61.0,24.9,30.15,WSW,247,2.7,-999.0,25,-99.99,,,0.00,Acu-Link.com,2013-11-13 21:27:00,
2013-11-13 14:42:00,61.2,25.1,30.14,SSW,202,3.7,-999.0,25,-99.99,,,0.00,Acu-Link.com,2013-11-13 21:42:00,
2013-11-13 14:57:00,59.5,26.4,30.13,SW,225,2.2,-999.0,28,-99.99,,,0.00,Acu-Link.com,2013-11-13 21:57:00,
2013-11-13 15:13:00,59.2,24.3,30.13,West,270,2.7,-999.0,26,-99.99,,,0.00,Acu-Link.com,2013-11-13 22:13:00,
2013-11-13 15:28:00,59.2,27.8,30.13,SSW,202,2.7,-999.0,30,-99.99,,,0.00,Acu-Link.com,2013-11-13 22:28:00,
2013-11-13 15:43:00,57.9,29.7,30.13,WSW,247,5.3,-999.0,34,-99.99,,,0.00,Acu-Link.com,2013-11-13 22:43:00,
2013-11-13 15:59:00,54.3,31.7,30.12,SSW,202,5.3,-999.0,42,-99.99,,,0.00,Acu-Link.com,2013-11-13 22:59:00,
2013-11-13 16:14:00,50.7,31.2,30.12,WSW,247,3.7,-999.0,47,-99.99,,,0.00,Acu-Link.com,2013-11-13 23:14:00,
2013-11-13 16:29:00,48.4,30.1,30.12,SSE,157,1.7,-999.0,49,-99.99,,,0.00,Acu-Link.com,2013-11-13 23:29:00,
2013-11-13 16:44:00,47.1,29.9,30.12,SSE,157,0.0,-999.0,51,-99.99,,,0.00,Acu-Link.com,2013-11-13 23:44:00,
2013-11-13 17:00:00,45.7,29.6,30.12,SSE,157,0.0,-999.0,53,-99.99,,,0.00,Acu-Link.com,2013-11-14 00:00:00,
2013-11-13 17:15:00,44.8,30.1,30.11,NW,315,0.0,-999.0,56,-99.99,,,0.00,Acu-Link.com,2013-11-14 00:15:00,
2013-11-13 17:30:00,43.0,29.2,30.11,NW,315,0.0,-999.0,58,-99.99,,,0.00,Acu-Link.com,2013-11-14 00:30:00,
2013-11-13 17:46:00,41.5,28.7,30.13,NW,315,2.2,-999.0,60,-99.99,,,0.00,Acu-Link.com,2013-11-14 00:46:00,
2013-11-13 18:01:00,40.5,28.5,30.13,NW,315,3.2,-999.0,62,-99.99,,,0.00,Acu-Link.com,2013-11-14 01:01:00,
2013-11-13 18:16:00,40.3,28.3,30.13,NW,315,2.2,-999.0,62,-99.99,,,0.00,Acu-Link.com,2013-11-14 01:16:00,
2013-11-13 18:32:00,39.4,27.9,30.13,NW,315,2.2,-999.0,63,-99.99,,,0.00,Acu-Link.com,2013-11-14 01:32:00,
2013-11-13 18:47:00,38.1,27.8,30.13,NW,315,1.7,-999.0,66,-99.99,,,0.00,Acu-Link.com,2013-11-14 01:47:00,
2013-11-13 19:02:00,37.0,27.1,30.13,NW,315,2.2,-999.0,67,-99.99,,,0.00,Acu-Link.com,2013-11-14 02:02:00,
2013-11-13 19:17:00,36.5,27.0,30.13,NW,315,2.2,-999.0,68,-99.99,,,0.00,Acu-Link.com,2013-11-14 02:17:00,
2013-11-13 19:33:00,36.0,26.8,30.12,NW,315,2.7,-999.0,69,-99.99,,,0.00,Acu-Link.com,2013-11-14 02:33:00,
2013-11-13 19:48:00,35.6,26.8,30.11,NW,315,2.7,-999.0,70,-99.99,,,0.00,Acu-Link.com,2013-11-14 02:48:00,
2013-11-13 20:03:00,35.8,27.3,30.10,NW,315,2.2,-999.0,71,-99.99,,,0.00,Acu-Link.com,2013-11-14 03:03:00,
2013-11-13 20:19:00,35.8,27.3,30.09,NW,315,3.2,-999.0,71,-99.99,,,0.00,Acu-Link.com,2013-11-14 03:19:00,
2013-11-13 20:34:00,35.1,26.7,30.10,NW,315,0.0,-999.0,71,-99.99,,,0.00,Acu-Link.com,2013-11-14 03:34:00,
2013-11-13 20:49:00,34.0,25.9,30.10,NW,315,1.7,-999.0,72,-99.99,,,0.00,Acu-Link.com,2013-11-14 03:49:00,
2013-11-13 21:05:00,32.7,25.3,30.10,NW,315,0.0,-999.0,74,-99.99,,,0.00,Acu-Link.com,2013-11-14 04:05:00,
2013-11-13 21:20:00,31.8,24.8,30.09,NW,315,0.0,-999.0,75,-99.99,,,0.00,Acu-Link.com,2013-11-14 04:20:00,
2013-11-13 21:35:00,31.6,25.2,30.09,NW,315,0.0,-999.0,77,-99.99,,,0.00,Acu-Link.com,2013-11-14 04:35:00,
2013-11-13 21:51:00,31.1,25.1,30.09,NW,315,0.0,-999.0,78,-99.99,,,0.00,Acu-Link.com,2013-11-14 04:51:00,
2013-11-13 22:06:00,30.2,24.2,30.09,NW,315,2.2,-999.0,78,-99.99,,,0.00,Acu-Link.com,2013-11-14 05:06:00,
2013-11-13 22:21:00,30.2,24.5,30.08,NW,315,1.7,-999.0,79,-99.99,,,0.00,Acu-Link.com,2013-11-14 05:21:00,
2013-11-13 22:37:00,29.8,24.1,30.08,NW,315,0.0,-999.0,79,-99.99,,,0.00,Acu-Link.com,2013-11-14 05:37:00,
2013-11-13 22:52:00,29.3,24.2,30.08,NW,315,0.0,-999.0,81,-99.99,,,0.00,Acu-Link.com,2013-11-14 05:52:00,
2013-11-13 23:07:00,30.2,25.4,30.06,NW,315,0.0,-999.0,82,-99.99,,,0.00,Acu-Link.com,2013-11-14 06:07:00,
2013-11-13 23:22:00,29.7,24.9,30.06,NW,315,2.2,-999.0,82,-99.99,,,0.00,Acu-Link.com,2013-11-14 06:22:00,
2013-11-13 23:38:00,29.5,24.7,30.06,NW,315,0.0,-999.0,82,-99.99,,,0.00,Acu-Link.com,2013-11-14 06:38:00,
2013-11-13 23:53:00,29.8,25.0,30.07,NW,315,0.0,-999.0,82,-99.99,,,0.00,Acu-Link.com,2013-11-14 06:53:00,